Regional Weather Roundup
Issued by NWS Cleveland, OH

Home | Current Version | Previous Version | Text Only | Print | Product List | Glossary Off
Versions: 1 2 3 4 5 6 7 8 9 10 11 12 13 14 15 16 17 18 19 20 21 22 23 24 25 26 27 28 29 30 31 32 33 34 35 36 37 38 39 40 41 42 43 44 45 46 47 48 49 50

818
ASUS41 KCLE 271000
RWRCLE
OHIO REGIONAL WEATHER ROUNDUP
NATIONAL WEATHER SERVICE WILMINGTON, OH
600 AM EDT SAT MAY 27 2017

NOTE: "FAIR" INDICATES FEW OR NO CLOUDS BELOW 12,000 FEET WITH NO
SIGNIFICANT WEATHER AND/OR OBSTRUCTIONS TO VISIBILITY.

OHZ001>008-015>018-024>027-034-035-043-044-271100-
   NORTHWEST OHIO

CITY           SKY/WX    TMP DP  RH WIND       PRES   REMARKS
DEFIANCE       CLOUDY    59  58  96 NE5       29.85S
FINDLAY        CLOUDY    61  58  90 E7        29.83S
TOLEDO EXPRESS CLOUDY    59  59 100 CALM      29.85S
TOLEDO EXEC    CLOUDY    61  60  97 E5        29.86S FOG
LIMA           CLOUDY    61  61 100 E6        29.83S
$$

OHZ009>014-019>023-028>033-038-089-271100-
   NORTHEAST OHIO

CITY           SKY/WX    TMP DP  RH WIND       PRES   REMARKS
CLE-HOPKINS    CLOUDY    60  56  86 CALM      29.89R
CLE-LAKEFRONT  CLOUDY    59  55  87 SE7       29.87R
CUY CO. ARPT   NOT AVBL
LORAIN-ELYRIA  LGT RAIN  58  53  84 CALM      29.87S
ASHTABULA      CLOUDY    53  53 100 E3        29.90S
AKRON-CANTON   CLOUDY    57  54  89 E7        29.87F
WOOSTER        NOT AVBL
MANSFIELD      LGT RAIN  58  58 100 E3        29.86R FOG
YOUNGSTOWN     LGT RAIN  55  52  89 S7        29.89F
$$

OHZ042-051>053-060>062-070>072-077>081-271100-
  SOUTHWEST OHIO

CITY           SKY/WX    TMP DP  RH WIND       PRES   REMARKS
CINC-COVINGTON MOCLDY    70  64  81 SW7       29.84S
CINC-LUNKEN    CLOUDY    70  66  87 CALM      29.83S
HAMILTON       CLOUDY    69  67  93 CALM      29.84R
DAYTON         NOT AVBL
WRIGHT-PAT AFB CLOUDY    65  65 100 NE3       29.82S
DAYTON GENERAL CLOUDY    69  63  81 SW5       29.82S
WILMINGTON     CLOUDY    66  64  93 SW6       29.83R
$$

OHZ036-037-039>041-045>050-054>059-063>069-073>076-082>088-271100-
  CENTRAL AND SOUTHEAST OHIO

CITY           SKY/WX    TMP DP  RH WIND       PRES   REMARKS
COLUMBUS       CLOUDY    64  64 100 NE5       29.84R
OSU AIRPORT    MOCLDY    63  63 100 E6        29.83F FOG
BOLTON FIELD   NOT AVBL
RICKENBACK AFB NOT AVBL
NEWARK         CLOUDY    62  60  93 E3        29.85R
MARION         LGT RAIN  61  60  97 N6        29.85S FOG
LANCASTER      CLOUDY    64  60  87 NE3       29.85R
ZANESVILLE     CLOUDY    61  59  93 SE8       29.85F
NEW PHILLY     LGT RAIN  58  58 100 E5        29.87S FOG
$$




USA.gov is the U.S. government's official web portal to all federal, state and local government web resources and services.